User: anonymous   Login
Location: Caltech
(34.1382°N, 118.1253°W)
Time: 22:32:21
(UTC-07:00)
Language:

Cosmos 1606 - Orbit

View from above orbital plane
View from above orbital plane
View from above satellite
View from above satellite

Ground track
Ground track

The orbit data is extracted from the following two-line orbital elements,

1 15369U 84111A   17229.91630852 +.00000325 +00000-0 +15318-4 0  9996
2 15369 082.5257 061.8442 0019042 047.7930 312.4915 15.15634980789816
Epoch (UTC): 17 August 2017 21:59:29
Eccentricity: 0.0019042
inclination: 82.5257°
perigee height: 506 km
apogee height: 532 km
right ascension of ascending node: 61.8442°
argument of perigee: 47.7930°
revolutions per day: 15.15634980
mean anomaly at epoch: 312.4915°
orbit number at epoch: 78981

The dashed part of the orbit path shows where the satellite is in the earth's shadow,  

DLR